KG1ZR Weather Reports


Display with metric or nautical units.
time (UTC)temp
F
wind
direction
speed
MPH
gust
MPH
rain 1hr
in
rain 24hr
in
rain mn
in
humidity
%
barometer
mb
20260903075758 60 187 1.0 7.0 0.07 0.08 0.08 54 1016.2
20260903074757 60 124 2.0 7.0 0.07 0.08 0.07 54 1016.5
20260903073756 60 173 2.0 5.0 0.04 0.04 0.04 54 1016.9
20260903072755 60 195 1.0 6.0 0.02 0.02 0.02 55 1017.0
20260903071755 60 170 2.0 6.0 0.02 0.02 0.02 55 1017.0
20260903070755 60 190 2.0 5.0 0.01 0.01 0.01 55 1017.0
20260903065755 61 176 1.0 4.0 0.01 0.01 0.01 55 1017.1
20260903064755 61 203 1.0 5.0 0.01 0.01 0.01 56 1017.2
20260903063752 61 140 1.0 5.0 0.00 0.00 0.00 56 1017.2
20260903062750 61 184 1.0 4.0 0.00 0.00 0.00 57 1017.4
20260903061747 60 213 2.0 4.0 0.00 0.00 0.00 57 1017.6
20260903061223 60 192 1.0 4.0 0.00 0.00 0.00 58 1017.7
20260903055744 60 217 1.0 4.0 0.00 0.00 0.00 58 1017.8
20260903054740 60 163 1.0 4.0 0.00 0.00 0.00 59 1017.9
20260903053738 60 205 2.0 3.0 0.00 0.00 0.00 60 1018.0
20260903052737 60 201 1.0 5.0 0.00 0.00 0.00 60 1018.1
20260903052205 60 178 2.0 5.0 0.00 0.00 0.00 61 1018.1
20260903050732 60 161 1.0 4.0 0.00 0.00 0.00 61 1018.0
20260903045731 60 104 1.0 5.0 0.00 0.00 0.00 61 1018.0
20260903044732 60 103 2.0 5.0 0.00 0.00 0.00 62 1018.2
20260903043732 60 169 0.0 2.0 0.00 0.00 0.00 62 1018.7
20260903043331 60 182 1.0 4.0 0.00 0.00 0.00 62 1018.9
20260903040731 60 228 2.0 5.0 0.00 0.00 0.00 63 1019.0
20260903035729 60 280 2.0 4.0 0.00 0.00 0.00 64 1018.9
20260903035204 60 121 1.0 4.0 0.00 0.00 0.00 64 1018.8
20260903033729 60 210 1.0 4.0 0.00 0.00 0.00 65 1018.8
20260903032729 60 211 1.0 6.0 0.00 0.00 0.00 65 1019.0
20260903032205 60 198 1.0 6.0 0.00 0.00 0.00 66 1019.2
20260903030729 60 200 1.0 6.0 0.00 0.00 0.00 66 1019.2
20260903025729 60 121 1.0 5.0 0.00 0.00 0.00 67 1019.2
20260903025203 60 203 1.0 5.0 0.00 0.00 0.00 67 1019.4
20260903024641 60 198 1.0 6.0 0.00 0.00 0.00 68 1019.6
20260903022728 60 164 1.0 6.0 0.00 0.00 0.00 69 1019.6
20260903021729 60 168 2.0 5.0 0.00 0.00 0.00 69 1019.7
20260903020729 60 175 1.0 5.0 0.00 0.00 0.00 70 1019.7
20260903020210 60 101 2.0 6.0 0.00 0.00 0.00 71 1019.8
20260903014730 60 61 2.0 6.0 0.00 0.00 0.00 71 1019.5
20260903013729 60 236 2.0 6.0 0.00 0.00 0.00 72 1019.5
20260903012729 61 150 2.0 7.0 0.00 0.00 0.00 73 1019.5
20260903011729 61 109 2.0 7.0 0.00 0.00 0.00 74 1019.3
20260903011645 62 179 1.0 5.0 0.00 0.00 0.00 75 1019.4
20260903005728 62 133 2.0 9.0 0.00 0.00 0.00 75 1019.1
20260903004730 63 136 3.0 9.0 0.00 0.00 0.00 76 1019.2
20260903003729 63 126 3.0 7.0 0.00 0.00 0.00 76 1019.2
20260903003203 64 138 2.0 6.0 0.00 0.00 0.00 75 1019.3
20260903001729 64 194 3.0 8.0 0.00 0.00 0.00 75 1019.5
20260903001212 64 184 2.0 7.0 0.00 0.00 0.00 75 1019.6
20260902235729 64 163 3.0 7.0 0.00 0.00 0.00 75 1019.4
20260902234728 65 5 2.0 7.0 0.00 0.00 0.00 74 1019.6
20260902233728 65 135 1.0 8.0 0.00 0.00 0.00 74 1019.6
20260902232728 65 213 2.0 8.0 0.00 0.00 0.00 74 1019.7
20260902231727 65 216 2.0 7.0 0.00 0.00 0.00 73 1019.8
20260902230728 66 199 2.0 7.0 0.00 0.00 0.00 73 1019.7
20260902225728 66 157 3.0 7.0 0.00 0.00 0.00 72 1019.7
20260902224729 67 188 2.0 6.0 0.00 0.00 0.00 72 1020.0
20260902223728 67 165 2.0 6.0 0.00 0.00 0.00 71 1020.0
20260902222728 67 198 3.0 7.0 0.00 0.00 0.00 71 1020.1
20260902221722 67 155 3.0 7.0 0.00 0.00 0.00 70 1020.2
20260902220722 68 171 2.0 6.0 0.00 0.00 0.00 70 1020.1
20260902215722 68 145 3.0 8.0 0.00 0.00 0.00 69 1019.9
20260902214722 68 159 3.0 8.0 0.00 0.00 0.00 69 1020.0
20260902213722 69 99 2.0 6.0 0.00 0.00 0.00 69 1020.1
20260902212722 69 169 2.0 7.0 0.00 0.00 0.00 69 1020.2
20260902211722 69 106 3.0 8.0 0.00 0.00 0.00 68 1020.1
20260902210723 69 211 3.0 8.0 0.00 0.00 0.00 68 1020.4
20260902205722 69 100 3.0 8.0 0.00 0.00 0.00 69 1020.4
20260902204721 69 144 3.0 7.0 0.00 0.00 0.00 68 1020.4
20260902203720 69 107 4.0 9.0 0.00 0.00 0.00 69 1020.4
20260902202720 70 78 4.0 9.0 0.00 0.00 0.00 68 1020.3
20260902201720 70 112 3.0 8.0 0.00 0.00 0.00 67 1020.4
20260902200720 70 206 3.0 9.0 0.00 0.00 0.00 67 1020.5
20260902195859 70 145 3.0 9.0 0.00 0.00 0.00 66 1020.7
20260902194154 70 229 3.0 6.0 0.00 0.00 0.00 66 1020.8
20260902192718 70 103 2.0 7.0 0.00 0.00 0.00 66 1020.9
20260902191718 71 121 2.0 7.0 0.00 0.00 0.00 63 1020.9
20260902190718 71 188 2.0 5.0 0.00 0.00 0.00 62 1021.0
20260902185718 71 147 2.0 6.0 0.00 0.00 0.00 64 1021.1
20260902184718 71 125 3.0 7.0 0.00 0.00 0.00 61 1021.0
20260902183718 71 190 2.0 6.0 0.00 0.00 0.00 62 1020.9
20260902182718 71 103 2.0 6.0 0.00 0.00 0.00 59 1020.9
20260902181718 72 138 2.0 6.0 0.00 0.00 0.00 61 1020.8
20260902180718 72 93 1.0 6.0 0.00 0.00 0.00 62 1020.8
20260902180145 72 159 2.0 7.0 0.00 0.00 0.00 60 1020.8
20260902175150 72 52 2.0 7.0 0.00 0.00 0.00 62 1021.0
20260902173712 72 182 3.0 7.0 0.00 0.00 0.00 57 1021.0
20260902172711 73 199 2.0 6.0 0.00 0.00 0.00 59 1020.9
20260902171712 73 107 2.0 6.0 0.00 0.00 0.00 58 1020.9
20260902171151 73 54 3.0 6.0 0.00 0.00 0.00 54 1021.2
20260902170629 72 111 4.0 7.0 0.00 0.00 0.00 56 1021.4
20260902164712 73 127 5.0 8.0 0.00 0.00 0.00 56 1021.4
20260902163712 73 242 3.0 8.0 0.00 0.00 0.00 58 1021.5
20260902162707 72 105 4.0 6.0 0.00 0.00 0.00 62 1021.5
20260902161706 71 98 3.0 10.0 0.00 0.00 0.00 64 1021.6
20260902160706 71 76 5.0 10.0 0.00 0.00 0.00 62 1021.8
20260902155706 71 125 3.0 9.0 0.00 0.00 0.00 60 1021.9
20260902154706 71 69 4.0 9.0 0.00 0.00 0.00 61 1021.8
20260902154152 71 139 5.0 11.0 0.00 0.00 0.00 62 1021.9
20260902153149 71 80 4.0 11.0 0.00 0.00 0.00 64 1021.9
20260902151706 71 63 3.0 11.0 0.00 0.00 0.00 65 1021.9
20260902150706 70 70 3.0 10.0 0.00 0.00 0.00 68 1022.0
20260902145704 70 69 3.0 7.0 0.00 0.00 0.00 68 1022.0
20260902144704 69 217 4.0 8.0 0.00 0.00 0.00 68 1022.0
20260902143702 70 134 3.0 7.0 0.00 0.00 0.00 70 1022.0
20260902143135 69 101 2.0 7.0 0.00 0.00 0.00 72 1022.0
20260902141702 69 175 2.0 8.0 0.00 0.00 0.00 72 1022.1
20260902140701 68 87 1.0 8.0 0.00 0.00 0.00 73 1022.0
20260902135701 67 41 2.0 7.0 0.00 0.00 0.00 74 1022.0
20260902134701 67 35 2.0 7.0 0.00 0.00 0.00 73 1022.1
20260902133701 65 86 2.0 8.0 0.00 0.00 0.00 73 1022.2
20260902132833 65 80 2.0 8.0 0.00 0.00 0.00 69 1021.9
20260902130700 65 108 2.0 6.0 0.00 0.00 0.00 55 1021.9
20260902125701 64 92 2.0 4.0 0.00 0.00 0.00 50 1021.9
20260902124700 62 285 1.0 3.0 0.00 0.00 0.00 50 1022.0
20260902123700 62 114 0.0 0.0 0.00 0.00 0.00 50 1022.0
20260902122701 61 69 0.0 6.0 0.00 0.00 0.00 50 1022.0
20260902121701 61 107 2.0 6.0 0.00 0.00 0.00 51 1022.0
20260902120701 61 67 1.0 3.0 0.00 0.00 0.00 51 1022.2
20260902115701 60 44 0.0 2.0 0.00 0.00 0.00 51 1022.2
20260902114701 60 44 0.0 2.0 0.00 0.00 0.00 51 1022.1
20260902113701 60 42 0.0 2.0 0.00 0.00 0.00 51 1022.1
20260902112702 60 27 0.0 2.0 0.00 0.00 0.00 51 1022.2
20260902111701 60 77 1.0 3.0 0.00 0.00 0.00 51 1022.0
20260902110701 60 67 0.0 2.0 0.00 0.00 0.00 52 1021.8
20260902105701 60 67 0.0 1.0 0.00 0.00 0.00 52 1021.7
20260902104701 60 67 0.0 2.0 0.00 0.00 0.00 52 1021.5
20260902103703 60 56 0.0 2.0 0.00 0.00 0.00 52 1021.5
20260902102701 60 65 0.0 2.0 0.00 0.00 0.00 52 1021.6
20260902101701 60 65 0.0 4.0 0.00 0.00 0.00 52 1021.4
20260902100700 60 65 2.0 4.0 0.00 0.00 0.00 52 1021.4
20260902095701 60 39 2.0 5.0 0.00 0.00 0.00 52 1021.5
20260902094701 60 58 1.0 3.0 0.00 0.00 0.00 52 1021.7
20260902094616 60 47 1.0 4.0 0.00 0.00 0.00 52 1021.5
20260902092701 60 67 1.0 2.0 0.00 0.00 0.00 52 1021.6
20260902091701 60 57 1.0 4.0 0.00 0.00 0.00 52 1021.5
20260902090701 60 46 2.0 4.0 0.00 0.00 0.00 52 1021.5
20260902085702 60 55 1.0 4.0 0.00 0.00 0.00 52 1021.6
20260902084701 60 57 1.0 3.0 0.00 0.00 0.00 52 1021.5
20260902083701 60 52 1.0 3.0 0.00 0.00 0.00 52 1021.5
20260902082701 60 40 1.0 3.0 0.00 0.00 0.00 52 1021.4
20260902081700 60 47 0.0 3.0 0.00 0.00 0.00 52 1021.3
20260902080700 60 75 1.0 3.0 0.00 0.00 0.00 52 1021.3